Location: *
(37.4917°N, 71.5558°E)
Time: 03:28:47
(UTC+00:00)

Spot 4 Rocket - Pass Details

Date: 09 April 2020
Orbit: 776 x 782 km, 98.7° (Epoch: 31 May)

Event Time Altitude Azimuth Distance (km) Brightness Sun altitude
Rises 22:39:01 0° 6° (N) 3,276 7.8 -24.2°
Reaches altitude 10° 22:41:24 10° 1° (N) 2,343 6.9 -23.8°
Maximum altitude 22:46:22 49° 288° (WNW) 1,006 4.3 -23.0°
Enters shadow 22:46:34 48° 281° (W) 1,010 4.3 -22.9°
